Location: Maiden
(35.5760°N, 81.2120°W)
Time: 02:37:07
(UTC-04:00)

A-11 Canister half - Pass Details

Date: 11 August 2020
Orbit: 1527 x 1682 km, 47.3° (Epoch: 25 September)

Event Time Altitude Azimuth Distance (km) Brightness Sun altitude
Rises 12:16:47 0° 229° (SW) 4,872 11.6 63.7°
Reaches altitude 10° 12:19:53 10° 229° (SW) 3,902 11.3 64.1°
Maximum altitude 12:29:57 84° 143° (SE) 1,690 11.1 65.4°
Drops below altitude 10° 12:40:09 10° 56° (ENE) 3,942 11.3 66.6°
Sets 12:43:18 0° 56° (ENE) 4,924 11.6 66.9°
